Home > Weather > New Salem > Past weeks

Flag for U.S.A. Weather for the Past 2 Weeks in New Salem, North Dakota, U.S.A.

Now
39 °F

Clear.


Feels Like: 28 °F
Forecast: 25 / 36 °F
Wind: 26 mph from West

Location: Bismarck Municipal Airport

Current Time: Feb 7, 2016 at 3:28:22 AM

Latest Report: Feb 7, 2016 at 2:52 AM


Visibility: 10 mi

Pressure: 29.82 "Hg (27.47 "Hg at 664m altitude)

Humidity: 57%

Dew point: 25 °F

Location of New SalemLocation

Historic Weather in New Salem — Graph

°F

New Salem Temperature Yesterday

Maximum temperature yesterday: 53 °F (at 3:52 PM)
Minimum temperature yesterday: 24 °F (at 12:52 AM)
Average temperature yesterday: 41 °F

High & Low Weather Summary for the Past Weeks

 TemperatureHumidityPressure
High54 °F (Jan 23, 9:52 PM)95% (Jan 23, 6:52 AM)30.26 "Hg (Jan 23, 6:52 AM)
Low12 °F (Jan 26, 9:52 PM)30% (Feb 4, 3:52 PM)29.49 "Hg (Jan 30, 2:52 AM)
Average32 °F69%29.93 "Hg
* Reported Jan 23 1:52 AM — Feb 7 1:52 AM, New Salem, Weather by CustomWeather, © 2016

Note: Actual official high and low records may vary slightly from our data, if they occured in-between our weather recording intervals... More about our weather records

Advertising

New Salem Weather History for the Previous 24 Hours

 ConditionsComfort  
Time TempWeatherWind HumidityBarometerVisibility
1:52 AM
Sun, Feb 7
39 °FClear.25 mph53%29.81 "Hg10 mi
12:52 AM40 °FClear.22 mph51%29.82 "Hg10 mi
11:52 PM
Sat, Feb 6
41 °FClear.22 mph45%29.80 "Hg10 mi
10:52 PM43 °FClear.22 mph49%29.79 "Hg10 mi
9:52 PM45 °FMostly cloudy.17 mph56%29.77 "Hg10 mi
8:52 PM46 °FMostly cloudy.22 mph54%29.76 "Hg10 mi
7:52 PM47 °FPassing clouds.20 mph37%29.75 "Hg10 mi
6:52 PM47 °FClear.12 mph39%29.73 "Hg10 mi
5:52 PM50 °FScattered clouds.12 mph36%29.73 "Hg10 mi
4:52 PM53 °FOvercast.17 mph37%29.71 "Hg10 mi
3:52 PM53 °FMostly cloudy.7 mph38%29.72 "Hg10 mi
2:52 PM52 °FMostly cloudy.14 mph38%29.75 "Hg10 mi
1:52 PM51 °FPartly sunny.9 mph41%29.74 "Hg10 mi
12:52 PM47 °FLight rain. Overcast.10 mph50%29.79 "Hg10 mi
11:52 AM47 °FMostly cloudy.6 mph46%29.82 "Hg10 mi
10:52 AM44 °FMostly cloudy.7 mph49%29.84 "Hg10 mi
9:52 AM42 °FOvercast.8 mph53%29.85 "Hg10 mi
8:52 AM39 °FOvercast.5 mph62%29.87 "Hg10 mi
7:52 AM31 °FClear.3 mph73%29.90 "Hg10 mi
6:52 AM34 °FPassing clouds.7 mph67%29.91 "Hg10 mi
5:52 AM34 °FClear.6 mph67%29.92 "Hg10 mi
4:52 AM33 °FClear.6 mph66%29.94 "Hg10 mi
3:52 AM31 °FClear.5 mph69%29.96 "Hg10 mi
Weather by CustomWeather, © 2016

See weather overviewHow to use our weather pages